This demonstration page uses our WeatherBlox Daily Observations layout. Learn more.

Left ArrowRight Arrow

38.20091, -84.87328

Hourly Observations for June 29, 2021

Temp ( °F °C ) Dew Point ( °F °C ) Humidity (%) Winds ( mph kmh ) Pressure ( in mb ) Visibility ( mi km ) Precip ( " mm )
12:53 am 00:53 Clear 77 25 72 22.2 85 85 Calm 30.19 1022 10 16 0.00 0.00
1:53 am 01:53 Clear 75 23.9 72 22.2 90 90 Calm 30.18 1022 10 16 0.00 0.00
2:53 am 02:53 Clear 76 24.4 72 22.2 88 88 SSE 3 6 30.16 1022 10 16 0.00 0.00
3:53 am 03:53 Clear 74 23.3 71 21.7 91 91 NNW 3 6 30.16 1022 10 16 0.00 0.00
4:53 am 04:53 Clear 73 22.8 70 21.1 90 90 Calm 30.16 1021 10 16 0.00 0.00
5:53 am 05:53 Clear 73 22.8 71 21.7 94 94 NNW 3 6 30.18 1022 10 16 0.00 0.00
6:53 am 06:53 Sunny 73 22.8 71 21.7 94 94 Calm 30.19 1022 10 16 0.00 0.00
7:53 am 07:53 Sunny 79 26.1 72 22.2 79 79 Calm 30.19 1022 10 16 0.00 0.00
8:53 am 08:53 Sunny 83 28.3 73 22.8 72 72 Calm 30.20 1023 10 16 0.00 0.00
9:53 am 09:53 Sunny 87 30.6 73 22.8 63 63 Calm 30.21 1023 10 16 0.00 0.00
10:53 am 10:53 Sunny 89 31.7 73 22.8 59 59 ENE 6 9 30.19 1023 10 16 0.00 0.00
11:53 am 11:53 Partly Cloudy 90 32.2 73 22.8 58 58 NE 6 9 30.19 1022 10 16 0.00 0.00
12:53 pm 12:53 Sunny 92 33.3 73 22.8 54 54 VRB 5 7 30.17 1022 10 16 0.00 0.00
1:53 pm 13:53 Partly Cloudy 93 33.9 73 22.8 52 52 undefined N/A 30.16 1021 10 16 0.00 0.00
2:53 pm 14:53 Sunny 95 35 72 22.2 47 47 VRB 3 6 30.13 1020 10 16 0.00 0.00
3:53 pm 15:53 Mostly Sunny 93 33.9 70 21.1 47 47 S 8 13 30.11 1020 10 16 0.00 0.00
4:53 pm 16:53 Mostly Cloudy 95 35 69 20.6 43 43 VRB 6 9 30.10 1019 10 16 0.00 0.00
5:53 pm 17:53 Mostly Sunny 94 34.4 69 20.6 44 44 VRB 6 9 30.09 1019 10 16 0.00 0.00
6:53 pm 18:53 Mostly Sunny 91 32.8 70 21.1 50 50 ESE 9 15 30.09 1019 10 16 0.00 0.00
7:53 pm 19:53 Sunny 88 31.1 70 21.1 55 55 SE 8 13 30.11 1020 10 16 0.00 0.00
8:53 pm 20:53 Sunny 87 30.6 69 20.6 55 55 S 5 7 30.11 1020 10 16 0.00 0.00
9:53 pm 21:53 Clear 83 28.3 71 21.7 67 67 S 3 6 30.12 1020 10 16 0.00 0.00
10:53 pm 22:53 Clear 80 26.7 72 22.2 76 76 Calm 30.14 1021 10 16 0.00 0.00
11:53 pm 23:53 Mostly Cloudy 78 25.6 73 22.8 85 85 Calm 30.14 1021 10 16 0.00 0.00

Powered by AerisWeather